FENGYUN 1C DEB

Satellite information

Favourite Embed

Satellite Type and Status

DEBRISIN ORBIT

Key statistics

Satellite FENGYUN 1C DEB at a glance.

Uptime

9493

Days in orbit

Revolutions

≈ 13.9

Per day

Orbit

SSO

Sun Synchronous Orbit

Inclination

99.4

Latest

Satellite identification and parameters

Extended collection of information and parameters for FENGYUN 1C DEB.

Object identification

Identified? True

Debris? True

Object name: FENGYUN 1C DEB

International designator: 1999-025CAQ

Object number (NORAD): 31634

Object ID (CCSDS): 31634

Country: PEOPLES REPUBLIC OF CHINA (PRC)

Current information (Y/N): Y

RCS size: SMALL

Orbital parameters

Period: 103.266 minutes

Inclination: 99.3894 deg

SMA: 7291.185 km

Apoapsis: 980.078 km

Periapsis: 846.023 km

RAAN: 168.8475 deg

Eccentricy: 0.0091929

Argument of periapsis: 36.4634 deg

Mean anomaly: 324.274 deg

Mean motion: 13.9445833 rev/day

Mean motion (dot): 0.00000357 rev/day2

B* drag term: 0.00029204 1/REarth

Two-line elements (TLE)

Creation date: May 6, 2025, 3:54 a.m.

Reference frame: TEME

Reference center: EARTH

Epoch: May 5, 2025, 8:54 p.m. UTC

TLE line 0: 0 FENGYUN 1C DEB

TLE line 1: 1 31634U 99025CAQ 25125.87100560 .00000357 00000-0 29204-3 0 9999

TLE line 2: 2 31634 99.3894 168.8475 0091929 36.4634 324.2740 13.94458330534459

Live tracking on map

Real-time ground track for satellite FENGYUN 1C DEB.

In-orbit conjunctions

A list of the most updated potential collisions computed for object FENGYUN 1C DEB.

Target Orbit TCA Probability of collision Miss distance Type
THORAD AGENA D DEB SSO 2024-09-24 18:51:07 0.002473578 147.0 (m) DEBRIS
YAOGAN 4 DEB SSO 2024-07-19 14:53:46 0.0001624683 175.0 (m) DEBRIS
COSMOS 1275 LEO 2024-06-08 14:42:14 0.0001101891 841.0 (m) PAYLOAD

Associated space launch

Chinese polar orbiting meteorological satellite

FENGYUN 1C DEB was lifted into orbit during the mission ‘Long March 4B | Feng Yun 1C’, on board a Long March 4B space rocket.

The launch took place on May 10, 1999, 1:33 a.m. from Launch Complex 7.

For more information about the launch, click the button.

Launch to space Long March 4B | Feng Yun 1C
Long March 4B | Feng Yun 1C

Agency: N/A

Status: Launch Successful

Launch date: May 10, 1999, 1:33 a.m. UTC

Rocket: Long March 4B

Launch pad: Launch Complex 7

Location: Taiyuan Satellite Launch Center, People's Republic of China

...

Latest news about this satellite

There are no fresh news available about this satellite. Check back as we update our databases every day.


Newsletter sign-up

Weekly statistics, charts and insights to help you stay on top of the space industry.